Tracking 18785 objects as of 23-July-2017
HD Live streaming from Space Station
objects crossing your sky now
MAYAK may become the brightest orbital object in the night sky!
Where is MAYAK now?
How to spot MAYAK

IRIDIUM 123

Track IRIDIUM 123 now!
10-day predictions
IRIDIUM 123 is classified as:


NORAD ID: 42804
Int'l Code: 2017-039B
Perigee: 783.3 km
Apogee: 786.3 km
Inclination: 86.4 °
Period: 100.4 minutes
Semi major axis: 7155 km
RCS: Unknown
Launch date: June 25, 2017
Source: United States (US)
Launch site: AIR FORCE WESTERN TEST RANGE (AFWTR)
Your satellite tracking list
Your tracking list is empty





NASA's NSSDC Master Catalog

Two Line Element Set (TLE):
1 42804U 17039B   17203.92937238 +.00000070 +00000-0 +17892-4 0  9992
2 42804 086.3970 272.2387 0002071 095.4691 264.6741 14.34221836003948
Source of the keplerian elements: AFSPC